Location: Quaker Farms
(41.4276°N, 73.1557°W)
Time: 20:26:47
(UTC+00:00)

S-56A Canister/Altair - Pass Details

Date: 17 June 2021
Orbit: 631 x 2501 km, 38.9° (Epoch: 30 July)

Event Time Altitude Azimuth Distance (km) Brightness Sun altitude
Rises 11:59:15 0° 262° (W) 2,985 10.0 27.2°
Reaches altitude 10° 12:01:21 10° 260° (W) 2,155 9.4 27.6°
Maximum altitude 12:06:11 70° 177° (S) 886 8.3 28.5°
Drops below altitude 10° 12:12:57 10° 95° (E) 2,973 12.1 29.7°
Sets 12:16:18 0° 94° (E) 4,230 12.5 30.4°
